Flag for U.S.A. Weather past 2 weeks in Davenport, Iowa, U.S.A.

Now
43 °F

Clear.


Feels Like: 36 °F
Forecast: 31 / 45 °F
Wind: 13 mph from South

Location: Davenport Municipal Airport

Current Time: Dec 25, 2014 at 5:35:32 PM

Latest Report: Dec 25, 2014 at 4:52 PM


Visibility: 10 mi

Pressure: 29.90 "Hg

Humidity: 62%

Dew point: 31 °F

Location of DavenportLocation

Historic Weather in Davenport — Graph

°F

Davenport temperature yesterday

Maximum temperature yesterday: 36 °F (at 12:52 AM)
Minimum temperature yesterday: 33 °F (at 11:52 PM)
Average temperature yesterday: 35 °F

Past Weeks' High & Low Weather Summary

 TemperatureHumidityPressure
High52 °F (Dec 14, 2:52 PM)97% (Dec 14, 7:52 AM)30.38 "Hg (Dec 14, 7:52 AM)
Low14 °F (Dec 17, 9:52 PM)52% (Dec 25, 2:52 PM)29.46 "Hg (Dec 23, 12:01 AM)
Average34 °F82%30.06 "Hg
* Reported Dec 10 3:52 PM — Dec 25 3:52 PM, Davenport, Weather by CustomWeather, © 2014

Note: Actual official high and low records may vary slightly from our data, if they occured in-between our weather recording intervals... More about our weather records

Advertising

Davenport weather history for previous 24 hours

 ConditionsComfort  
Time TempWeatherWind HumidityBarometerVisibility
3:52 PM
Dec 25
45 °FSunny.13 mph56%29.89 "Hg10 mi
2:52 PM47 °FSunny.14 mph52%29.88 "Hg10 mi
1:52 PM45 °FSunny.17 mph58%29.88 "Hg10 mi
12:52 PM45 °FSunny.16 mph58%29.90 "Hg10 mi
11:52 AM42 °FSunny.17 mph65%29.91 "Hg10 mi
10:52 AM38 °FSunny.17 mph73%29.93 "Hg10 mi
9:52 AM37 °FSunny.16 mph73%29.92 "Hg10 mi
8:52 AM34 °FSunny.12 mph79%29.90 "Hg10 mi
7:52 AM33 °FOvercast.9 mph78%29.89 "Hg10 mi
6:52 AM33 °FOvercast.12 mph78%29.87 "Hg10 mi
5:52 AM33 °FOvercast.10 mph75%29.85 "Hg10 mi
4:52 AM33 °FOvercast.12 mph75%29.84 "Hg10 mi
3:52 AM32 °FOvercast.14 mph85%29.83 "Hg10 mi
2:52 AM32 °FOvercast.20 mph82%29.82 "Hg10 mi
1:52 AM32 °FOvercast.15 mph82%29.79 "Hg10 mi
12:52 AM33 °FOvercast.15 mph78%29.77 "Hg10 mi
11:52 PM
Dec 24
33 °FOvercast.12 mph85%29.76 "Hg10 mi
10:52 PM34 °FOvercast.14 mph79%29.74 "Hg10 mi
9:52 PM34 °FOvercast.15 mph82%29.72 "Hg10 mi
8:52 PM35 °FOvercast.15 mph85%29.70 "Hg10 mi
7:52 PM35 °FOvercast.15 mph82%29.69 "Hg10 mi
6:52 PM36 °FOvercast.15 mph82%29.67 "Hg10 mi
5:52 PM36 °FOvercast.13 mph82%29.65 "Hg10 mi
Weather by CustomWeather, © 2014

See weather overviewHow to use our weather pages